Location: Camaret
(48.2753°N, 4.5961°W)
Time: 04:21:57
(UTC+00:00)

CZ-2D R/B - Pass Details

Date: 29 October 2020
Orbit: 522 x 537 km, 97.4° (Epoch: 01 December)

Event Time Altitude Azimuth Distance (km) Brightness Sun altitude
Rises 18:55:46 0° 179° (S) 2,649 6.8 -19.1°
Reaches altitude 10° 18:57:55 10° 185° (S) 1,762 5.9 -19.5°
Maximum altitude 19:01:36 48° 261° (W) 691 4.2 -20.1°
Drops below altitude 10° 19:05:19 10° 337° (NNW) 1,772 6.2 -20.7°
Sets 19:07:29 0° 343° (NNW) 2,665 7.1 -21.1°
